Comanche, TX

5:15 AM CST on January 20, 2018 (GMT -0600)
Comanche

Weather History for KMKN - January, 2014

Change the Weather History Date:

Monday, January 13, 2014

  Actual Average (KSEP) Record (KSEP)
Temperature  
Mean Temperature 53 °F -  
Max Temperature 61 °F 50 °F 78 °F (1947)
Min Temperature 45 °F 27 °F 7 °F (1963)
Degree Days  
Heating Degree Days 12    
Growing Degree Days 3 (Base 50)    
Moisture  
Dew Point 23 °F    
Average Humidity 35    
Maximum Humidity 75    
Minimum Humidity 14    
Precipitation  
Precipitation 0.00 in - - ()
Sea Level Pressure  
Sea Level Pressure 30.04 in    
Wind  
Wind Speed 14 mph (WNW)    
Max Wind Speed 20 mph    
Max Gust Speed 30 mph    
Visibility 10 miles    
Events      
Averages and records for this station are not official NWS values.
T = Trace of Precipitation, MM = Missing Value Source: NWS Daily Summary

Daily Weather History Graph

Daily Weather History Graph

Search for Another Location

Airport or City:

Trip Planner

Search our weather history database for the weather conditions in past years. The results will help you decide how hot, cold, wet, or windy it might be!

Date:

Astronomy

Jan. 13, 2014 Rise Set
Actual Time 7:35 AM CST 5:51 PM CST
Civil Twilight 7:08 AM CST 6:17 PM CST
Nautical Twilight 6:38 AM CST 6:47 PM CST
Astronomical Twilight 6:09 AM CST 7:17 PM CST
Moon 4:06 PM CST (1/13) 5:26 AM CST (1/13)
Length of Visible Light 11h 08m
Length of Day
10h 15m
Waxing Gibbous, 95% of the Moon is Illuminated
Jan 13
Waxing Gibbous
Jan 15
Full
Jan 23
Last Quarter
Jan 30
New
Feb 6
First Quarter

Hourly Weather History & Observations

Time (CST) Temp. Windchill Dew Point Humidity Pressure Visibility Wind Dir Wind Speed Gust Speed Precip Events Conditions
12:15 AM 58.5 °F - 49.5 °F 72% 29.83 in 10.0 mi SW 15.0 mph 23.0 mph N/A   Clear
12:35 AM 58.5 °F - 49.8 °F 73% 29.82 in 10.0 mi SW 18.4 mph 25.3 mph N/A   Clear
12:55 AM 58.6 °F - 50.2 °F 73% 29.82 in 10.0 mi SW 19.6 mph 26.5 mph N/A   Clear
1:15 AM 59.0 °F - 50.2 °F 73% 29.82 in 10.0 mi SW 19.6 mph - N/A   Clear
1:35 AM 59.2 °F - 50.4 °F 73% 29.84 in 10.0 mi SW 18.4 mph 29.9 mph N/A   Clear
1:55 AM 57.4 °F - 49.5 °F 75% 29.85 in 10.0 mi WSW 13.8 mph 20.7 mph N/A   Clear
2:15 AM 57.2 °F - 49.1 °F 74% 29.85 in 10.0 mi West 11.5 mph 20.7 mph N/A   Clear
2:35 AM 57.0 °F - 48.0 °F 72% 29.86 in 10.0 mi West 10.4 mph 18.4 mph N/A   Clear
2:55 AM 58.1 °F - 44.2 °F 60% 29.87 in 10.0 mi WNW 16.1 mph 26.5 mph N/A   Clear
3:15 AM 57.4 °F - 40.1 °F 53% 29.89 in 10.0 mi NW 19.6 mph 27.6 mph N/A   Clear
3:35 AM 54.7 °F - 32.4 °F 43% 29.91 in 10.0 mi NNW 18.4 mph 23.0 mph N/A   Clear
3:55 AM 53.1 °F - 32.0 °F 45% 29.92 in 10.0 mi NNW 17.3 mph 23.0 mph N/A   Clear
4:15 AM 52.2 °F - 31.5 °F 45% 29.93 in 10.0 mi NNW 15.0 mph 21.9 mph N/A   Clear
4:35 AM 51.1 °F - 31.5 °F 47% 29.94 in 10.0 mi NNW 16.1 mph 20.7 mph N/A   Clear
4:55 AM 50.0 °F - 31.5 °F 49% 29.94 in 10.0 mi NNW 15.0 mph - N/A   Clear
5:15 AM 49.3 °F - 31.3 °F 50% 29.95 in 10.0 mi NNW 12.7 mph 18.4 mph N/A   Clear
5:35 AM 48.2 °F - 31.3 °F 52% 29.96 in 10.0 mi NNW 11.5 mph - N/A   Clear
5:55 AM 47.3 °F - 31.1 °F 53% 29.97 in 10.0 mi NW 8.1 mph - N/A   Clear
6:15 AM 47.3 °F - 30.2 °F 52% 29.98 in 10.0 mi NNW 11.5 mph - N/A   Clear
6:35 AM 46.6 °F - 29.7 °F 52% 29.99 in 10.0 mi NW 11.5 mph - N/A   Clear
6:55 AM 46.6 °F - 28.9 °F 50% 30.00 in 10.0 mi NW 11.5 mph - N/A   Clear
7:15 AM 46.4 °F 41.1 °F 28.4 °F 50% 30.02 in 10.0 mi NW 11.5 mph - N/A   Clear
7:35 AM 46.0 °F 40.2 °F 27.9 °F 49% 30.03 in 10.0 mi NW 12.7 mph - N/A   Clear
7:55 AM 45.7 °F 40.6 °F 27.3 °F 49% 30.04 in 10.0 mi NW 10.4 mph 17.3 mph N/A   Clear
8:15 AM 46.2 °F 39.8 °F 26.2 °F 46% 30.05 in 10.0 mi NW 15.0 mph 20.7 mph N/A   Clear
8:35 AM 46.8 °F - 25.5 °F 43% 30.07 in 10.0 mi NW 13.8 mph - N/A   Clear
8:55 AM 48.2 °F - 24.6 °F 40% 30.08 in 10.0 mi NNW 18.4 mph 23.0 mph N/A   Clear
9:15 AM 49.5 °F - 23.7 °F 37% 30.09 in 10.0 mi NNW 17.3 mph 24.2 mph N/A   Clear
9:35 AM 50.9 °F - 23.2 °F 34% 30.11 in 10.0 mi NNW 13.8 mph - N/A   Clear
9:55 AM 52.0 °F - 22.8 °F 32% 30.12 in 10.0 mi NW 16.1 mph - N/A   Clear
10:15 AM 52.9 °F - 22.3 °F 30% 30.13 in 10.0 mi NNW 16.1 mph 25.3 mph N/A   Clear
10:35 AM 54.0 °F - 22.1 °F 29% 30.14 in 10.0 mi NNW 13.8 mph 20.7 mph N/A   Clear
10:55 AM 55.0 °F - 22.5 °F 28% 30.14 in 10.0 mi NW 15.0 mph 23.0 mph N/A   Clear
11:15 AM 55.8 °F - 22.3 °F 27% 30.14 in 10.0 mi NW 17.3 mph 23.0 mph N/A   Clear
11:35 AM 56.5 °F - 22.3 °F 27% 30.14 in 10.0 mi NNW 15.0 mph 20.7 mph N/A   Clear
11:55 AM 57.4 °F - 21.6 °F 25% 30.13 in 10.0 mi NW 16.1 mph 24.2 mph N/A   Clear
12:15 PM 58.6 °F - 20.5 °F 23% 30.13 in 10.0 mi NW 16.1 mph 20.7 mph N/A   Clear
12:35 PM 58.8 °F - 19.2 °F 22% 30.12 in 10.0 mi NNW 15.0 mph 21.9 mph N/A   Clear
12:55 PM 60.1 °F - 14.9 °F 17% 30.11 in 10.0 mi NNW 17.3 mph 26.5 mph N/A   Clear
1:15 PM 60.6 °F - 16.0 °F 18% 30.10 in 10.0 mi NNW 16.1 mph 25.3 mph N/A   Clear
1:35 PM 60.1 °F - 13.3 °F 16% 30.10 in 10.0 mi NNW 17.3 mph 25.3 mph N/A   Clear
1:55 PM 60.1 °F - 12.9 °F 16% 30.10 in 10.0 mi NNW 19.6 mph 28.8 mph N/A   Clear
2:15 PM 60.6 °F - 13.8 °F 16% 30.09 in 10.0 mi NNW 13.8 mph 21.9 mph N/A   Clear
2:35 PM 61.3 °F - 13.5 °F 15% 30.09 in 10.0 mi NNW 15.0 mph 23.0 mph N/A   Clear
2:55 PM 61.0 °F - 12.9 °F 15% 30.09 in 10.0 mi NW 17.3 mph 23.0 mph N/A   Clear
3:15 PM 61.2 °F - 13.1 °F 15% 30.10 in 10.0 mi NNW 18.4 mph - N/A   Clear
3:35 PM 61.0 °F - 11.5 °F 14% 30.10 in 10.0 mi NW 15.0 mph 23.0 mph N/A   Clear
3:55 PM 61.2 °F - 12.0 °F 15% 30.09 in 10.0 mi NNW 15.0 mph 20.7 mph N/A   Clear
4:15 PM 61.2 °F - 11.3 °F 14% 30.09 in 10.0 mi NNW 15.0 mph 21.9 mph N/A   Clear
4:35 PM 60.8 °F - 11.8 °F 15% 30.10 in 10.0 mi NW 13.8 mph 23.0 mph N/A   Clear
4:55 PM 60.3 °F - 11.5 °F 15% 30.10 in 10.0 mi NW 8.1 mph - N/A   Clear
5:15 PM 59.5 °F - 11.8 °F 15% 30.09 in 10.0 mi NW 8.1 mph - N/A   Clear
5:35 PM 58.3 °F - 11.3 °F 16% 30.09 in 10.0 mi WNW 6.9 mph - N/A   Clear
5:55 PM 55.9 °F - 12.4 °F 18% 30.09 in 10.0 mi WNW 4.6 mph - N/A   Clear
6:15 PM 54.5 °F - 12.0 °F 19% 30.09 in 10.0 mi West 4.6 mph - N/A   Clear
6:35 PM 53.1 °F - 12.6 °F 20% 30.10 in 10.0 mi West 5.8 mph - N/A   Clear
6:55 PM 52.9 °F - 13.3 °F 21% 30.10 in 10.0 mi West 6.9 mph - N/A   Clear
7:15 PM 52.7 °F - 13.1 °F 21% 30.10 in 10.0 mi WSW 5.8 mph - N/A   Clear
7:35 PM 49.8 °F - 13.8 °F 24% 30.11 in 10.0 mi WSW 8.1 mph - N/A   Clear
7:55 PM 52.5 °F - 14.0 °F 22% 30.12 in 10.0 mi WSW 6.9 mph - N/A   Clear
8:15 PM 51.1 °F - 14.4 °F 23% 30.12 in 10.0 mi WSW 6.9 mph - N/A   Clear
8:35 PM 50.4 °F - 14.4 °F 24% 30.12 in 10.0 mi WSW 6.9 mph - N/A   Clear
8:55 PM 49.1 °F - 14.5 °F 25% 30.12 in 10.0 mi WSW 8.1 mph - N/A   Clear
9:15 PM 50.0 °F - 14.2 °F 24% 30.11 in 10.0 mi WSW 9.2 mph - N/A   Clear
9:35 PM 49.1 °F - 14.0 °F 25% 30.10 in 10.0 mi WSW 8.1 mph - N/A   Clear
9:55 PM 49.3 °F - 14.2 °F 25% 30.10 in 10.0 mi WSW 10.4 mph - N/A   Clear
10:15 PM 48.7 °F - 14.0 °F 25% 30.10 in 10.0 mi WSW 8.1 mph - N/A   Clear
10:35 PM 48.2 °F - 14.0 °F 25% 30.11 in 10.0 mi WSW 8.1 mph - N/A   Clear
10:55 PM 48.4 °F - 14.0 °F 25% 30.11 in 10.0 mi WSW 10.4 mph - N/A   Clear
11:15 PM 48.7 °F - 13.8 °F 25% 30.10 in 10.0 mi WSW 9.2 mph - N/A   Clear
11:35 PM 48.6 °F - 13.8 °F 25% 30.10 in 10.0 mi WSW 11.5 mph - N/A   Clear
11:55 PM 48.4 °F - 14.5 °F 26% 30.09 in 10.0 mi WSW 9.2 mph - N/A   Clear